Temperature
15 15 15 15 15 15 15 15 15 15 15 16 16 16 16 16 16 16 16 16 16 16 15 15 15 14 14 14 14 14 14 14 14 14 15 15 15 16
14 14 14 15 15 15 15 14 14 15 15 16 16 16 16 16 16 15 15 15 15 15 15 15 15 14 14 14 14 14 14 14 14 14 15 15 15 15
14 14 14 14 14 14 14 14 14 14 15 16 16 16 16 16 16 15 15 15 15 15 15 15 15 14 14 14 14 15 15 15 15 15 15 15 15 15
14 14 14 14 14 14 14 14 14 14 14 15 16 16 16 16 16 15 15 15 15 15 15 15 15 14 14 14 14 14 15 15 15 15 15 15 15 15
13 13 13 13 13 13 13 13 14 14 14 14 15 15 15 16 15 15 15 15 15 15 15 14 14 14 14 14 14 14 14 15 15 15 15 15 15 15
14 13 13 13 13 13 13 13 13 13 13 14 14 14 15 15 15 15 14 14 14 14 14 14 14 14 14 14 14 14 14 14 14 14 14 14 15 15
14 13 13 13 13 12 12 12 12 13 13 13 13 14 14 14 14 14 14 14 14 14 14 14 14 14 13 13 14 14 14 14 14 14 14 14 14 15
14 13 13 13 13 12 12 12 12 12 12 12 13 13 13 14 14 14 14 13 13 14 14 14 14 14 13 13 13 14 14 14 14 14 14 14 14 14
14 14 13 13 13 13 13 12 12 12 12 12 12 13 13 13 13 14 14 14 14 14 13 13 13 14 13 13 13 13 13 14 14 14 13 13 14 14
14 14 14 13 13 13 13 13 12 12 12 12 12 13 13 13 13 13 14 14 14 13 13 13 13 13 13 13 13 13 13 13 13 13 13 13 13 13
14 14 14 14 14 13 13 13 13 12 12 12 13 13 13 13 13 13 13 13 14 14 14 13 13 13 13 13 13 13 13 13 13 13 13 13 13 12
14 14 14 14 14 14 13 13 13 13 13 13 13 13 13 13 13 13 13 13 13 13 14 13 13 13 13 13 13 13 13 13 13 13 13 13 13 12
13 13 13 13 14 14 14 14 13 13 13 13 13 13 13 13 13 13 13 13 13 13 13 13 13 12 12 12 13 13 13 13 13 13 13 13 13 13
13 13 13 13 13 14 14 13 13 13 13 13 13 13 13 13 13 12 12 12 12 12 12 12 12 12 12 12 12 12 13 13 13 13 13 13 13 13
12 13 13 13 13 13 13 13 13 13 13 12 12 12 12 12 12 12 11 11 11 11 11 11 11 11 11 11 11 12 12 12 12 12 12 12 12 12
12 12 12 12 13 13 13 13 12 12 12 12 12 12 12 11 11 11 11 11 11 11 11 11 11 11 11 11 11 11 11 11 11 11 11 11 11 11
12 12 12 12 12 12 12 12 12 12 12 11 11 11 11 11 11 10 10 10 10 11 10 10 10 10 10 10 10 11 10 10 10 10 10 10 10 10
11 11 12 11 11 11 11 11 11 11 11 11 11 11 11 10 10 10 10 10 10 10 10 10 10 10 10 10 10 10 10 10 10 10 10 10 10 10
11 11 11 11 11 11 11 11 11 11 11 10 10 10 10 10 10 10 10 10 10 10 10 10 10 9 9 9 10 10 10 10 10 10 10 10 10 10
10 10 10 10 10 10 10 10 10 10 10 10 10 10 10 10 10 9 9 9 9 9 9 9 9 9 9 9 9 9 10 9 9 9 9 9 9 9
10 10 10 10 10 10 10 10 9 9 9 9 9 9 9 9 9 9 9 9 9 9 9 9 8 8 8 8 8 9 9 9 9 9 9 9 9 9
9 9 9 9 9 9 9 9 9 9 9 9 9 9 9 9 9 9 9 9 9 8 8 8 8 8 8 8 8 8 8 8 8 8 8 8 8 8
9 9 9 9 9 9 9 9 9 9 9 9 8 8 9 8 8 8 8 8 8 8 8 8 8 8 8 7 7 8 8 8 8 8 8 7 7 7
Wind_Speed
7 9 7 7 7 6 5 4 4 5 6 6 5 7 10 13 15 15 13 13 11 10 8 6 4 2 1 0 2 3 5 5 4 4 5 7 8 10
5 7 7 7 8 8 7 6 5 5 5 6 7 5 7 10 15 15 15 14 14 12 10 8 6 4 3 1 1 3 5 5 3 2 3 4 6 8
4 6 7 8 7 8 7 7 5 4 4 4 3 3 7 7 8 12 14 14 14 14 13 11 8 6 4 3 2 3 4 3 1 0 1 2 5 6
4 5 5 5 7 7 7 8 7 6 4 4 3 3 5 6 7 7 7 11 13 15 15 14 11 9 7 5 3 2 2 1 2 2 3 3 4 5
4 5 5 5 5 5 7 8 7 7 5 4 3 2 2 2 3 3 4 5 9 12 15 15 14 12 10 8 6 3 2 2 3 5 5 4 4 4
4 4 4 5 5 5 5 7 7 8 6 4 3 2 3 2 3 3 4 5 6 7 12 13 15 15 13 11 8 6 5 4 5 4 4 2 2 2
4 4 5 6 6 5 4 4 6 6 6 5 3 2 3 3 4 5 6 5 5 5 5 6 8 9 12 13 12 10 9 8 8 7 5 3 2 1
6 6 6 7 9 10 8 8 6 5 5 4 3 3 4 5 4 5 5 4 5 5 6 5 5 7 8 13 15 14 13 12 12 11 8 6 4 2
7 6 6 7 10 7 10 11 11 10 8 5 4 5 5 6 6 6 8 8 8 5 6 6 5 7 8 13 17 18 17 15 14 13 11 9 7 4
7 7 7 8 7 9 8 7 8 9 10 8 7 8 9 7 7 8 9 8 4 4 6 6 5 6 5 11 17 20 20 19 17 16 14 12 9 7
6 6 7 7 10 11 9 8 7 7 10 13 14 12 13 13 9 5 5 5 6 5 6 6 4 4 3 4 13 20 22 22 21 18 16 14 12 9
4 4 5 7 10 11 10 8 8 7 5 5 6 7 5 4 5 6 6 6 4 4 5 6 4 4 3 3 3 9 14 19 21 20 18 16 14 9
3 3 4 7 8 10 11 9 9 6 4 4 3 2 1 1 1 1 4 5 5 4 3 5 4 5 4 2 2 3 5 7 11 13 17 17 16 13
4 3 4 5 3 5 7 7 8 7 4 4 3 2 1 1 1 1 0 1 2 3 2 5 4 5 5 4 3 2 3 5 6 5 10 14 15 17
3 5 5 5 5 5 6 8 7 5 4 3 2 2 1 1 1 1 1 2 2 1 1 2 3 3 4 4 3 3 3 4 6 7 7 7 6 7
1 2 5 7 6 6 6 5 4 3 4 3 3 2 1 1 1 1 1 0 0 1 1 2 3 4 3 3 4 4 4 3 4 6 6 6 7 11
2 3 3 3 3 3 3 3 3 3 3 2 2 1 1 1 1 1 2 2 1 1 2 1 2 3 4 4 4 5 5 4 4 5 5 5 7 7
3 3 3 3 3 3 3 3 2 2 2 2 2 2 2 2 2 2 2 2 2 2 2 2 1 1 2 4 8 7 5 5 5 6 6 6 7 6
5 4 4 4 4 3 3 2 1 0 1 1 1 2 2 2 2 2 2 2 3 3 3 3 2 3 4 5 5 10 7 5 5 6 8 8 8 6
5 6 5 5 4 4 3 3 2 3 2 2 1 1 1 1 1 2 2 3 3 3 3 3 3 4 5 5 4 4 12 8 5 7 6 7 6 6
5 5 5 5 4 4 3 3 3 3 3 3 2 2 2 1 2 3 3 5 4 3 5 5 4 5 4 3 5 4 4 11 11 5 4 5 5 4
5 5 4 5 4 4 4 4 4 4 4 3 3 3 3 2 3 4 4 4 4 4 5 4 3 2 2 4 7 7 5 2 3 3 1 1 2 4
4 5 4 4 4 4 4 4 4 3 3 3 3 3 4 3 3 3 4 4 4 4 4 3 2 2 3 4 6 6 6 4 3 2 1 4 6 6
Wind_Direction
206 203 202 201 196 189 171 169 181 209 231 225 210 204 193 191 193 190 190 193 192 189 181 173 165 161 161 101 6 355 351 351 3 22 28 26 24 21
207 208 212 210 203 198 184 176 183 198 228 229 215 201 185 193 195 192 195 198 199 199 195 191 190 193 199 221 317 341 338 335 338 357 29 31 29 24
213 213 220 213 209 203 188 183 187 181 224 256 226 201 177 180 178 190 199 201 202 205 205 204 206 212 220 237 282 326 336 336 336 289 130 53 40 34
223 218 223 217 212 202 194 194 194 185 192 227 225 197 193 191 176 179 193 202 201 210 212 211 213 218 223 230 248 287 330 45 87 109 114 77 47 38
222 217 215 201 205 202 201 197 194 188 175 190 214 212 193 158 158 185 192 202 207 217 219 218 217 221 224 228 234 244 237 154 118 101 93 81 55 38
220 215 210 202 199 195 197 191 184 178 171 171 181 200 198 157 153 181 204 215 215 211 214 213 217 223 226 230 233 236 227 194 164 143 127 109 73 45
221 216 213 210 201 193 186 182 181 175 166 162 165 177 187 171 197 195 212 209 223 205 197 205 208 218 223 230 233 233 228 214 197 184 175 166 143 73
225 228 228 234 232 223 210 196 186 175 167 158 162 190 209 215 210 201 200 191 235 210 190 217 192 218 221 224 229 229 228 221 208 198 191 181 168 148
221 224 234 234 231 227 228 219 209 202 192 175 193 215 225 224 216 213 206 210 221 189 172 216 201 225 222 225 225 225 225 222 213 205 200 196 187 177
221 222 232 245 227 212 210 213 215 212 211 215 222 232 238 238 225 223 221 224 231 189 169 200 200 216 218 218 225 222 219 218 215 210 207 205 205 206
236 234 232 242 246 218 199 211 221 227 226 225 228 239 246 248 236 218 205 200 228 223 190 198 199 198 214 224 227 225 219 215 212 211 211 209 211 215
255 266 263 255 251 222 198 199 214 225 211 202 216 230 241 266 249 215 207 205 210 234 199 186 177 159 236 254 223 218 214 212 211 212 213 212 211 205
245 267 283 287 262 223 194 196 208 196 176 165 150 142 106 20 350 240 211 207 210 234 201 173 174 176 201 228 274 218 196 193 203 214 218 217 213 203
225 242 262 262 228 187 179 185 173 149 130 125 120 111 77 16 8 25 98 175 198 204 205 180 180 181 181 197 240 238 206 201 197 207 215 222 223 219
240 254 237 169 128 115 127 134 129 127 131 129 136 145 145 128 101 73 51 56 75 94 92 163 170 170 180 202 211 194 205 219 208 213 212 214 215 211
354 76 113 113 101 102 101 98 101 129 133 137 144 145 132 128 156 171 158 83 2 303 217 169 163 163 183 202 201 206 197 213 201 208 210 216 220 219
132 111 109 119 114 102 95 93 92 100 107 117 130 144 179 208 229 212 198 190 211 257 281 243 213 213 207 195 213 223 212 213 205 190 198 223 228 219
128 126 132 127 124 125 123 109 102 120 143 155 168 186 207 224 237 222 212 222 250 267 273 271 246 276 272 249 223 227 222 221 206 196 196 216 236 221
90 90 93 100 99 102 105 102 95 119 165 171 199 224 232 234 232 237 240 251 264 268 268 260 235 239 263 272 251 215 219 221 204 209 213 218 234 222
69 77 78 77 77 77 74 69 53 42 51 45 22 351 317 262 254 257 251 249 260 268 275 265 242 240 254 270 272 249 218 223 222 228 227 226 236 217
63 67 69 74 72 68 63 58 54 45 37 32 15 351 330 289 262 258 256 258 256 263 271 270 259 257 261 268 268 264 244 223 231 236 227 223 220 211
68 70 64 64 61 56 51 51 50 45 38 30 6 345 324 293 276 272 264 260 256 257 266 273 285 295 240 255 269 275 271 244 233 232 255 237 229 226
62 65 60 55 51 49 49 52 53 39 27 8 350 338 332 320 304 291 283 275 276 279 281 286 289 267 257 264 276 280 279 262 214 196 130 73 74 63
Height
1511 1513 1516 1519 1521 1523 1526 1529 1532 1532 1532 1534 1535 1536 1538 1539 1540 1540 1540 1540 1541 1540 1540 1540 1540 1539 1538 1537 1536 1535 1535 1534 1534 1533 1533 1532 1530 1529
1506 1508 1510 1513 1515 1518 1521 1523 1526 1528 1528 1530 1532 1534 1535 1536 1537 1538 1538 1539 1539 1539 1539 1539 1538 1538 1537 1535 1534 1533 1533 1533 1532 1532 1531 1530 1529 1528
1501 1502 1504 1507 1509 1512 1515 1517 1519 1522 1524 1526 1528 1530 1532 1533 1534 1535 1536 1537 1537 1537 1537 1537 1536 1536 1535 1533 1532 1531 1531 1531 1530 1530 1530 1529 1528 1527
1497 1498 1499 1501 1503 1505 1508 1511 1513 1516 1519 1522 1524 1526 1528 1530 1531 1532 1533 1534 1535 1535 1535 1535 1534 1533 1532 1531 1530 1529 1529 1528 1528 1528 1528 1527 1526 1525
1495 1495 1496 1497 1498 1500 1502 1505 1508 1511 1514 1517 1520 1522 1524 1526 1527 1528 1529 1530 1531 1532 1532 1532 1532 1531 1530 1529 1528 1527 1526 1526 1526 1526 1525 1525 1525 1524
1494 1494 1494 1495 1496 1497 1498 1499 1502 1505 1508 1511 1515 1518 1519 1521 1522 1523 1524 1526 1527 1528 1528 1528 1528 1528 1527 1527 1526 1525 1524 1524 1523 1523 1523 1523 1522 1521
1494 1494 1494 1493 1494 1495 1495 1496 1497 1499 1502 1505 1509 1512 1515 1516 1517 1519 1519 1521 1522 1522 1523 1523 1524 1524 1524 1524 1523 1522 1522 1521 1521 1520 1520 1520 1519 1518
1493 1493 1493 1493 1493 1493 1494 1494 1495 1495 1497 1500 1504 1507 1510 1512 1514 1514 1515 1515 1516 1518 1518 1518 1519 1519 1520 1520 1519 1519 1518 1518 1518 1517 1517 1516 1515 1515
1492 1492 1492 1492 1492 1492 1492 1492 1493 1494 1495 1497 1499 1502 1505 1507 1509 1509 1509 1509 1510 1512 1513 1513 1514 1514 1516 1515 1515 1515 1515 1515 1514 1514 1514 1513 1512 1511
1490 1490 1490 1490 1490 1491 1491 1491 1491 1492 1492 1494 1496 1498 1501 1502 1503 1504 1505 1505 1505 1506 1507 1507 1508 1510 1511 1511 1512 1512 1512 1511 1511 1511 1510 1510 1509 1508
1487 1487 1487 1487 1488 1488 1489 1489 1489 1490 1491 1492 1493 1495 1497 1498 1499 1499 1499 1500 1499 1500 1502 1502 1503 1504 1506 1507 1508 1508 1508 1508 1508 1507 1507 1506 1505 1505
1483 1484 1484 1484 1485 1485 1486 1487 1487 1488 1489 1490 1491 1492 1493 1494 1494 1494 1495 1495 1495 1495 1496 1497 1498 1500 1500 1501 1502 1503 1504 1504 1504 1504 1503 1502 1502 1501
1478 1480 1480 1481 1481 1482 1483 1484 1485 1486 1487 1488 1489 1490 1490 1490 1490 1490 1490 1491 1491 1492 1493 1493 1493 1495 1496 1497 1498 1499 1499 1500 1500 1500 1500 1499 1498 1498
1474 1475 1476 1477 1478 1478 1479 1481 1482 1484 1485 1486 1486 1487 1487 1487 1487 1487 1487 1487 1487 1488 1488 1489 1489 1490 1491 1492 1493 1494 1495 1495 1496 1496 1496 1495 1495 1494
1470 1471 1472 1473 1474 1475 1476 1478 1480 1481 1483 1484 1484 1485 1485 1485 1485 1485 1485 1485 1485 1484 1484 1485 1485 1486 1486 1487 1488 1489 1490 1491 1491 1492 1492 1491 1491 1491
1467 1468 1469 1470 1472 1473 1475 1476 1478 1479 1481 1482 1482 1482 1483 1483 1483 1483 1483 1483 1482 1482 1482 1481 1481 1481 1481 1481 1482 1482 1484 1485 1485 1486 1486 1486 1486 1486
1466 1467 1468 1469 1470 1472 1473 1475 1476 1478 1479 1479 1480 1480 1480 1480 1480 1480 1480 1480 1480 1479 1479 1479 1478 1477 1477 1477 1477 1477 1477 1477 1478 1479 1479 1479 1480 1480
1465 1466 1467 1468 1470 1471 1473 1474 1475 1476 1477 1478 1478 1478 1478 1478 1478 1478 1478 1477 1476 1476 1476 1475 1475 1474 1473 1472 1473 1472 1472 1472 1472 1472 1471 1471 1471 1473
1465 1466 1467 1468 1470 1471 1472 1474 1475 1475 1476 1476 1476 1476 1476 1476 1476 1475 1475 1474 1473 1473 1472 1472 1471 1470 1469 1467 1467 1468 1467 1467 1466 1465 1465 1464 1464 1464
1467 1467 1468 1469 1470 1472 1473 1474 1474 1475 1475 1475 1475 1475 1475 1474 1474 1473 1472 1471 1471 1470 1469 1468 1467 1465 1464 1463 1462 1461 1462 1461 1460 1459 1459 1458 1457 1457
1470 1470 1471 1472 1472 1473 1473 1474 1474 1474 1474 1474 1474 1473 1473 1472 1471 1470 1469 1468 1467 1466 1465 1464 1462 1461 1459 1458 1457 1455 1455 1455 1454 1453 1452 1452 1451 1450
1474 1474 1474 1474 1474 1474 1474 1474 1473 1473 1473 1473 1472 1471 1470 1469 1468 1467 1466 1465 1463 1462 1460 1459 1458 1456 1455 1453 1451 1450 1449 1449 1448 1447 1447 1446 1445 1444
1477 1477 1476 1476 1475 1474 1474 1474 1473 1472 1472 1471 1470 1469 1468 1466 1465 1464 1462 1461 1459 1458 1456 1455 1453 1452 1450 1448 1446 1445 1444 1443 1442 1441 1440 1439 1439 1438